CW8248 Weather Reports


Display with metric or nautical units.
time (UTC)temp
F
wind
direction
speed
MPH
gust
MPH
rain 1hr
in
rain 24hr
in
rain mn
in
humidity
%
barometer
mb
20260504210013 70 253 8.0 19.0 0.00 0.00 0.00 48 1008.2
20260504205515 70 242 8.0 21.0 0.00 0.00 0.00 50 1008.3
20260504205012 70 273 7.0 17.0 0.00 0.00 0.00 49 1008.4
20260504204516 70 263 7.0 21.0 0.00 0.00 0.00 51 1008.4
20260504204009 70 235 9.0 22.0 0.00 0.00 0.00 49 1008.5
20260504203510 69 276 9.0 23.0 0.00 0.00 0.00 50 1008.5
20260504203008 69 231 9.0 23.0 0.00 0.00 0.00 49 1008.7
20260504202508 69 288 13.0 21.0 0.00 0.00 0.00 51 1008.6
20260504202007 69 256 10.0 19.0 0.00 0.00 0.00 51 1008.7
20260504201507 68 228 10.0 21.0 0.00 0.00 0.00 53 1008.6
20260504201008 68 250 12.0 21.0 0.00 0.00 0.00 53 1008.7
20260504200506 68 191 12.0 23.0 0.00 0.00 0.00 52 1008.6
20260504200006 68 266 14.0 26.0 0.00 0.00 0.00 52 1008.6
20260504195504 68 306 13.0 28.0 0.00 0.00 0.00 53 1008.7
20260504195005 68 191 15.0 27.0 0.00 0.00 0.00 53 1008.7
20260504194507 68 263 12.0 28.0 0.00 0.00 0.00 51 1008.7
20260504194005 68 191 13.0 28.0 0.00 0.00 0.00 51 1008.8
20260504193503 68 256 14.0 27.0 0.00 0.00 0.00 53 1008.7
20260504193003 68 191 12.0 26.0 0.00 0.00 0.00 54 1008.8
20260504192502 68 248 14.0 28.0 0.00 0.00 0.00 52 1008.7
20260504192001 68 262 15.0 31.0 0.00 0.00 0.00 54 1008.9
20260504191502 68 281 17.0 31.0 0.00 0.00 0.00 53 1008.8
20260504191059 68 276 11.0 25.0 0.00 0.00 0.00 53 1009.0
20260504190559 67 266 11.0 25.0 0.00 0.00 0.00 55 1009.0
20260504190057 67 252 14.0 25.0 0.00 0.00 0.00 53 1009.0
20260504185556 67 258 10.0 28.0 0.00 0.00 0.00 54 1009.0
20260504185055 67 191 17.0 28.0 0.00 0.00 0.00 54 1009.1
20260504184559 67 254 15.0 24.0 0.00 0.00 0.00 53 1009.0
20260504184055 67 275 14.0 26.0 0.00 0.00 0.00 54 1009.1
20260504183553 67 191 12.0 26.0 0.00 0.00 0.00 55 1009.2
20260504183051 66 283 13.0 24.0 0.00 0.00 0.00 55 1009.2
20260504182550 66 276 14.0 30.0 0.00 0.00 0.00 55 1009.2
20260504182048 66 277 17.0 31.0 0.00 0.00 0.00 56 1009.2
20260504181552 66 191 14.0 27.0 0.00 0.00 0.00 56 1009.2
20260504181046 66 191 14.0 29.0 0.00 0.00 0.00 56 1009.3
20260504180547 66 248 13.0 24.0 0.00 0.00 0.00 56 1009.3
20260504180043 65 268 11.0 27.0 0.00 0.00 0.00 58 1009.3
20260504175542 65 259 14.0 27.0 0.00 0.00 0.00 57 1009.3
20260504175043 65 265 13.0 27.0 0.00 0.00 0.00 57 1009.4
20260504174540 65 261 12.0 26.0 0.00 0.00 0.00 56 1009.4
20260504174038 64 258 13.0 26.0 0.00 0.00 0.00 58 1009.4
20260504173538 65 219 12.0 25.0 0.00 0.00 0.00 58 1009.5
20260504173036 64 285 11.0 26.0 0.00 0.00 0.00 58 1009.4
20260504172536 64 281 14.0 26.0 0.00 0.00 0.00 59 1009.4
20260504172035 64 243 16.0 26.0 0.00 0.00 0.00 60 1009.6
20260504171535 64 257 13.0 27.0 0.00 0.00 0.00 59 1009.5
20260504171034 64 258 18.0 32.0 0.00 0.00 0.00 59 1009.5
20260504170533 64 237 18.0 32.0 0.00 0.00 0.00 58 1009.5
20260504151012 60 279 7.0 16.0 0.00 0.00 0.00 65 1010.0
20260504150513 60 258 5.0 12.0 0.00 0.00 0.00 64 1010.0
20260504141002 53 35 0.0 4.0 0.00 0.00 0.00 72 1009.9
20260504140504 52 56 2.0 4.0 0.00 0.00 0.00 72 1009.9
20260504130551 50 16 1.0 2.0 0.00 0.00 0.00 75 1009.4
20260504110536 53 50 1.0 2.0 0.00 0.00 0.00 70 1009.0
20260504100534 53 51 0.0 3.0 0.00 0.00 0.00 71 1009.0
20260504081534 59 51 0.0 3.0 0.00 0.00 0.00 60 1008.7
20260504081015 59 52 0.0 3.0 0.00 0.00 0.00 60 1008.7
20260504080515 59 52 0.0 3.0 0.00 0.00 0.00 60 1008.8
20260504050504 64 19 1.0 3.0 0.00 0.00 0.00 50 1008.0
20260504050006 64 54 1.0 4.0 0.00 0.00 0.00 50 1008.0
20260504045502 64 54 0.0 4.0 0.00 0.00 0.00 50 1007.9
20260504045003 64 54 0.0 2.0 0.00 0.00 0.00 50 1007.8
20260504044502 63 54 1.0 2.0 0.00 0.00 0.00 52 1007.8
20260504044002 64 54 0.0 3.0 0.00 0.00 0.00 51 1007.8
20260504043502 65 54 1.0 3.0 0.00 0.00 0.00 49 1007.7
20260504043002 66 54 0.0 2.0 0.00 0.00 0.00 46 1007.6
20260504042503 67 54 0.0 2.0 0.00 0.00 0.00 43 1007.6
20260504042005 67 54 0.0 2.0 0.00 0.00 0.00 43 1007.5
20260504041502 67 54 0.0 2.0 0.00 0.00 0.00 44 1007.3
20260504041003 67 54 1.0 2.0 0.00 0.00 0.00 44 1007.3
20260504040503 67 54 0.0 1.0 0.00 0.00 0.00 44 1007.2
20260504040002 68 54 0.0 2.0 0.00 0.00 0.00 43 1007.1
20260504035501 68 54 0.0 3.0 0.00 0.00 0.00 42 1007.1
20260504035001 69 54 1.0 4.0 0.00 0.00 0.00 41 1007.0
20260504034501 69 56 2.0 3.0 0.00 0.00 0.00 41 1006.9
20260504034000 69 57 2.0 3.0 0.00 0.00 0.00 40 1006.8
20260504033500 69 58 2.0 3.0 0.00 0.00 0.00 41 1006.8
20260504033103 69 58 1.0 3.0 0.00 0.00 0.00 42 1006.7
20260504033002 69 58 1.0 2.0 0.00 0.00 0.00 41 1006.8
20260504032501 70 58 0.0 2.0 0.00 0.00 0.00 43 1006.7
20260504032101 70 58 1.0 3.0 0.00 0.00 0.00 40 1006.7
20260504031603 71 58 1.0 3.0 0.00 0.00 0.00 40 1006.6
20260504031100 71 58 1.0 3.0 0.00 0.00 0.00 40 1006.6
20260504030559 72 58 2.0 3.0 0.00 0.00 0.00 40 1006.6
20260504030100 72 59 2.0 3.0 0.00 0.00 0.00 40 1006.6
20260504025600 73 60 1.0 3.0 0.00 0.00 0.00 40 1006.6
20260504025059 74 61 1.0 3.0 0.00 0.00 0.00 39 1006.6
20260504024601 74 65 1.0 3.0 0.00 0.00 0.00 37 1006.6
20260504024059 75 75 1.0 3.0 0.00 0.00 0.00 37 1006.6
20260504023559 76 88 1.0 4.0 0.00 0.00 0.00 35 1006.5
20260504023059 76 92 1.0 6.0 0.00 0.00 0.00 30 1006.6
20260504022559 77 54 1.0 6.0 0.00 0.00 0.00 32 1006.5
20260504022058 77 141 0.0 2.0 0.00 0.00 0.00 30 1006.5
20260504021558 78 141 0.0 6.0 0.00 0.00 0.00 31 1006.6
20260504021100 80 141 1.0 6.0 0.00 0.00 0.00 26 1006.6
20260504020557 79 88 0.0 4.0 0.00 0.00 0.00 25 1006.7
20260504020132 80 127 1.0 5.0 0.00 0.00 0.00 24 1006.7
20260504015556 80 135 1.0 5.0 0.00 0.00 0.00 28 1006.7
20260504015055 80 126 2.0 5.0 0.00 0.00 0.00 23 1006.8
20260504014604 80 140 2.0 6.0 0.00 0.00 0.00 21 1006.9
20260504014054 80 144 2.0 6.0 0.00 0.00 0.00 25 1006.9
20260504013554 81 147 3.0 6.0 0.00 0.00 0.00 22 1007.0
20260504013115 81 147 4.0 8.0 0.00 0.00 0.00 22 1007.0
20260504012553 81 142 5.0 8.0 0.00 0.00 0.00 22 1007.1
20260504012055 81 142 4.0 8.0 0.00 0.00 0.00 22 1007.1
20260504011551 81 152 5.0 8.0 0.00 0.00 0.00 22 1007.1
20260504011052 81 148 4.0 6.0 0.00 0.00 0.00 22 1007.2
20260504010550 81 146 4.0 7.0 0.00 0.00 0.00 22 1007.3
20260504010051 81 144 4.0 7.0 0.00 0.00 0.00 21 1007.4
20260504005550 81 140 4.0 7.0 0.00 0.00 0.00 21 1007.4
20260504005049 81 139 3.0 7.0 0.00 0.00 0.00 21 1007.5
20260504004619 82 145 4.0 7.0 0.00 0.00 0.00 21 1007.5
20260504004049 82 143 2.0 7.0 0.00 0.00 0.00 21 1007.6
20260504003547 82 154 4.0 7.0 0.00 0.00 0.00 23 1007.6
20260504003052 83 152 5.0 7.0 0.00 0.00 0.00 21 1007.6
20260504002547 83 119 5.0 7.0 0.00 0.00 0.00 21 1007.7
20260504002046 84 149 5.0 7.0 0.00 0.00 0.00 21 1007.7
20260504001616 84 150 5.0 7.0 0.00 0.00 0.00 20 1007.7
20260504001046 85 144 5.0 7.0 0.00 0.00 0.00 20 1007.8
20260504000545 85 150 4.0 7.0 0.00 0.00 0.00 19 1007.9
20260504000046 85 154 4.0 9.0 0.00 0.00 0.00 22 1007.9
20260503235544 85 154 6.0 9.0 0.00 0.00 0.00 22 1008.0
20260503235044 85 145 5.0 9.0 0.00 0.00 0.00 24 1008.0
20260503234543 85 156 5.0 9.0 0.00 0.00 0.00 22 1008.0
20260503234044 85 152 6.0 9.0 0.00 0.00 0.00 20 1008.1
20260503233542 86 149 6.0 9.0 0.00 0.00 0.00 20 1008.2
20260503233042 85 162 6.0 9.0 0.00 0.00 0.00 20 1008.3
20260503232540 85 148 6.0 9.0 0.00 0.00 0.00 20 1008.3
20260503232039 86 154 5.0 9.0 0.00 0.00 0.00 20 1008.4
20260503231538 86 154 6.0 10.0 0.00 0.00 0.00 19 1008.5
20260503231038 86 156 7.0 10.0 0.00 0.00 0.00 21 1008.5
20260503230537 86 160 7.0 10.0 0.00 0.00 0.00 21 1008.7
20260503230043 86 148 5.0 9.0 0.00 0.00 0.00 20 1008.8
20260503225535 86 146 6.0 9.0 0.00 0.00 0.00 21 1008.9
20260503225035 86 152 6.0 10.0 0.00 0.00 0.00 20 1008.9
20260503224534 86 151 6.0 10.0 0.00 0.00 0.00 22 1009.0
20260503224034 87 151 6.0 9.0 0.00 0.00 0.00 24 1009.1
20260503223533 87 179 5.0 7.0 0.00 0.00 0.00 19 1009.2
20260503223032 88 166 5.0 10.0 0.00 0.00 0.00 26 1009.3
20260503222531 89 180 6.0 10.0 0.00 0.00 0.00 26 1009.3
20260503222030 89 167 6.0 10.0 0.00 0.00 0.00 23 1009.4
20260503221529 88 186 5.0 10.0 0.00 0.00 0.00 18 1009.6
20260503221029 88 214 6.0 9.0 0.00 0.00 0.00 25 1009.7
20260503220527 87 158 5.0 9.0 0.00 0.00 0.00 23 1009.9
20260503220038 87 160 5.0 8.0 0.00 0.00 0.00 24 1009.9
20260503215525 89 208 5.0 10.0 0.00 0.00 0.00 26 1009.9
20260503215025 89 181 5.0 9.0 0.00 0.00 0.00 28 1010.0
20260503214524 89 167 4.0 9.0 0.00 0.00 0.00 27 1010.0
20260503214026 87 151 5.0 12.0 0.00 0.00 0.00 20 1010.1
20260503213522 88 174 6.0 12.0 0.00 0.00 0.00 22 1010.2
20260503213021 88 162 5.0 9.0 0.00 0.00 0.00 21 1010.2
20260503212520 89 153 5.0 9.0 0.00 0.00 0.00 24 1010.4
20260503212018 87 173 6.0 9.0 0.00 0.00 0.00 24 1010.5
20260503211518 86 154 4.0 8.0 0.00 0.00 0.00 28 1010.5
20260503211017 85 150 4.0 8.0 0.00 0.00 0.00 23 1010.6
20260503210520 86 144 4.0 8.0 0.00 0.00 0.00 25 1010.7